Regional Weather Roundup
Issued by NWS

Home | Current Version | Previous Version | Graphics & Text | Print | Product List | Glossary On
Versions: 1 2 3 4 5 6 7 8 9 10 11 12 13 14 15 16 17 18 19 20 21 22 23 24 25 26 27 28 29 30 31 32 33 34 35 36 37 38 39 40 41 42 43 44 45 46 47 48 49 50
000
ASUS45 KTFX 181119
RWRMT
MONTANA HOURLY WEATHER ROUNDUP
NATIONAL WEATHER SERVICE GREAT FALLS MT
419 AM MST THU DEC 18 2014

NOTE: "FAIR" INDICATES FEW OR NO CLOUDS BELOW 12000 FEET WITH NO
SIGNIFICANT WEATHER AND/OR OBSTRUCTIONS TO VISIBILITY.

* THESE STATIONS ARE NOT UNDER NWS QUALITY CONTROL. THEY DO NOT
   REPORT WEATHER SUCH AS PRECIPITATION OR FOG.

MTZ001>007-043-181200-
WEST OF THE DIVIDE
CITY           SKY/WX    TMP DP  RH WIND       PRES   REMARKS
KALISPELL      CLOUDY    28  28 100 CALM      29.96S
MISSOULA       CLOUDY    28  27  96 CALM      30.00S
BUTTE          CLOUDY     9   5  84 CALM      29.98S
MULLAN PASS    LGT SNOW  28  27  96 VRB6      29.90R VSB 1/2  WCI  21
* ANACONDA     PTCLDY    28  18  66 S14        N/A   WCI  17
* ESSEX        N/A       28  27  96 W1         N/A
* EUREKA APT   CLOUDY    28  27  96 CALM      29.99S
* HAMILTON APT PTCLDY    28  25  89 NE1       29.98R
* LINCOLN      N/A       16  14  92 NE1        N/A
* LOOKOUT PASS N/A       32  32 100 N1         N/A
* POLSON       N/A       29  28  96 N/A        N/A
* RONAN APT    CLOUDY    30  28  92 N/A        N/A
* SEELEY LAKE  N/A       21  19  92 NW3        N/A
* THOMP F APT  CLOUDY    23  18  81 E2G9       N/A
* YAAK HILL    N/A       32  29  89 N/A        N/A
$$

MTZ008-052>055-181200-
SOUTHWEST MONTANA
CITY           SKY/WX    TMP DP  RH WIND       PRES   REMARKS
BOZEMAN        PTCLDY    12   9  88 CALM      30.00S
DILLON         PTCLDY    18  10  71 S6        30.00S WCI  10
* W YELLOWSTON CLEAR     11   8  88 N/A        N/A
* THREE FORKS  PTCLDY    12  -9  38 N/A        N/A
* TWIN BRIDGES PTCLDY    14   7  73 E6         N/A   WCI   5
* BOULDER HILL N/A       24  15  68 S6         N/A   WCI  17
* MONIDA PASS  N/A       20  19  96 SE12G20    N/A   WCI   8
* RAYNOLDS PAS N/A       12  -3  51 S2         N/A
* WHITEHALL    N/A       16  12  84 W8         N/A   WCI   5
* WISE RIVER   N/A        8   4  84 W3         N/A
$$

MTZ009>010-012-014-046-048-049-054-181200-
EAST SLOPES AND CENTRAL MONTANA
CITY           SKY/WX    TMP DP  RH WIND       PRES   REMARKS
CUT BANK       CLOUDY    18  14  84 N7        29.85F WCI   9
GREAT FALLS    CLOUDY    34  25  70 S13       29.89R WCI  25
HELENA         FOG       25  21  85 CALM      29.99R
MALMSTROM AFB  MOCLDY    32  27  82 SW13      29.91S WCI  22
* CONRAD       MOCLDY    14  12  92 CALM       N/A
* DEARBORN     N/A       34  25  70 S9         N/A   WCI  27
* EAST GLACIER N/A       33  27  79 W8         N/A   WCI  26
* MONARCH      N/A       28  16  61 S9         N/A   WCI  19
* PENDROY      N/A       32  24  72 SW2        N/A
* ROGERS PASS  N/A       28  20  72 E6G14      N/A   WCI  21
* WHITE SULPH  N/A       24  14  66 SW5G16     N/A   WCI  18
$$

MTZ011-013-016-021-035-040-045-047-050-051-181200-
NORTH CENTRAL MONTANA
CITY           SKY/WX    TMP DP  RH WIND       PRES   REMARKS
HAVRE          FOG       21  21 100 SW8       29.92F VSB 1/2  WCI  11
LEWISTOWN      PTCLDY    19  16  88 SE7       29.90S WCI  10
* N BAR RANCH  CLEAR     23  18  81 W5        29.90S WCI  16
* CHINOOK      CLEAR     25  23  92 CALM      29.94S VSB 1 1/4
* MALTA APT    PTCLDY    19  12  74 N/A        N/A
* CHESTER      N/A       20  18  92 NW1        N/A
* DENTON       N/A       25  17  72 S8         N/A   WCI  16
* GEYSER       N/A       30  18  61 W5G11      N/A   WCI  25
* JUDITH GAP   N/A       23  19  85 SE7        N/A   WCI  15
* LOMA         N/A       20  18  92 E2         N/A
$$

MTZ017>020-022>027-061-062-181200-
NORTHEAST MONTANA
CITY           SKY/WX    TMP DP  RH WIND       PRES   REMARKS
GLASGOW        CLOUDY    23  19  85 E9        29.94F WCI  13
GLENDIVE       CLOUDY    23  19  85 CALM      29.97F
JORDAN         PTCLDY    27  25  92 CALM      29.93R
SIDNEY         MOCLDY    21  18  88 CALM      30.01F
WOLF POINT     CLOUDY    25  19  78 E3        29.99S
* BEAVER HILL  N/A       23  21  92 SE2        N/A
* CIRCLE       N/A       25  23  92 N/A        N/A
* FT PECK      N/A       27  25  92 E9         N/A   WCI  18
* LINDSAY DVD  N/A       21  20  96 S1         N/A
* NAVAJO       N/A       19  17  92 SE4        N/A
* PLENTYWOOD A CLEAR    N/A N/A N/A S6        29.97F
* POPLAR APT   CLEAR     23  19  85 CALM      29.99S
* SACO         N/A       25  23  92 E6         N/A   WCI  18
$$

MTZ028>042-056>058-181200-
SOUTHCENTRAL AND SOUTHEAST MONTANA
CITY           SKY/WX    TMP DP  RH WIND       PRES   REMARKS
BAKER          CLOUDY    25  25 100 E3        29.94F
BILLINGS       PTCLDY    23  18  81 SW17      29.94F WCI   9
LIVINGSTON     PTCLDY    34  18  52 W22G40    29.95S WCI  22
MILES CITY     CLOUDY    25  21  85 CALM      29.95S
* FORSYTH APT  PTCLDY    23  23 100 CALM      29.94S
* LAUREL APT   PTCLDY    19  12  74 N/A        N/A
* ROUNDUP APT  PTCLDY    25  16  69 S6         N/A   WCI  18
* ALZADA       N/A       15  13  92 N/A        N/A
* HYSHAM       N/A       27  20  75 W6         N/A   WCI  20
* LAME DEER    N/A       29  23  78 N/A        N/A
* REED POINT   N/A       14  14 100 N/A        N/A
* ROSCOE HILL  N/A       32   4  30 SW9G16     N/A   WCI  24
$$

REGIONAL REPORTS...DAKOTAS
CITY           SKY/WX    TMP DP  RH WIND       PRES   REMARKS
WILLISTON      CLOUDY    21  18  88 S7        30.01F WCI  12
DICKINSON      FOG       19  18  96 S9        29.97F WCI   8
BEACH          CLOUDY    23  23 100 S6        29.95F WCI  16
CROSBY         CLOUDY    19  18  96 S9        30.01F WCI   8
TIOGA          CLOUDY    18  18 100 S9        30.03F WCI   7
WATFORD CITY   CLOUDY    19  18  96 SE9       29.99F WCI   8
BISMARCK       CLOUDY    16  14  92 SE10      30.11F WCI   4
GRAND FORKS    PTCLDY     3   1  91 SE3       30.27F
FARGO          CLEAR      9   5  84 SE3       30.27F
BUFFALO SD     PTCLDY    25  19  78 S10       29.89F WCI  15
RAPID CITY     FOG       21  19  92 S6        29.99F WCI  13
$$

REGIONAL REPORTS...WYOMING/IDAHO/WASHINGTON
CITY           SKY/WX    TMP DP  RH WIND       PRES   REMARKS
GILLETTE       MOCLDY    18  14  84 NE3       29.95R
SHERIDAN       PTCLDY    12   9  88 SW3       29.94F
CODY           PTCLDY    21  12  68 CALM      29.94S
YELLOWSTONE LA MOCLDY    21  16  81 VRB3      30.01S
SALMON         MOCLDY    19  14  81 CALM      30.08S
MULLAN PASS    LGT SNOW  28  27  96 VRB6      29.90S VSB 1/2  WCI  21
SAND POINT     LGT SNOW  32  32 100 CALM      29.99R VSB 1 1/4
SPOKANE        CLOUDY    36  34  92 S6        29.97S WCI  31
$$

REGIONAL REPORTS...ALBERTA
CITY           SKY/WX    TMP DP  RH WIND       PRES   REMARKS
CALGARY        FAIR      28  16  61 W5        29.80S WCI  22
MEDICINE HAT   CLEAR     21  19  92 SW10      29.87S WCI  10
EDMONTON       FOG       12   9  88 CALM      29.84R VSB M1/4
WATERTON GATE  N/A       36  27  70 SW14       N/A   WCI  27
CARDSTON       N/A       25  23  92 SE1        N/A
MILK RIVER     N/A       14  12  92 W6         N/A   WCI   5
$$

REGIONAL REPORTS...SASKATCHEWAN
CITY           SKY/WX    TMP DP  RH WIND       PRES   REMARKS
SWIFT CURRENT  CLEAR     21  21 100 SW14      29.85S WCI   8
MOOSE JAW      LGT SNOW  23  23 100 S6        29.95F WCI  16
REGINA         CLOUDY    18  18 100 S12       29.98F WCI   5
VAL MARIE      N/A       25  23  92 SW2        N/A
ASSINIBOIA     N/A       23  21  92 SW7        N/A   WCI  15
CORONACH       N/A       19  18  96 S7         N/A   WCI  10

$$



USA.gov is the U.S. government's official web portal to all federal, state and local government web resources and services.